Time,TemperatureF,DewpointF,PressureIn,WindDirection,WindDirectionDegrees,WindSpeedMPH,WindSpeedGustMPH,Humidity,HourlyPrecipIn,Conditions,Clouds,dailyrainin,SoftwareType,DateUTC
2013-03-03 00:22:00,30.0,-99.9,29.78,North,-999,-999.0,-999.0,-999,-99.99,,,-99.99,,2013-03-03 05:22:00,
2013-03-03 00:32:00,30.0,-99.9,29.78,North,-999,-999.0,-999.0,-999,-99.99,,,-99.99,,2013-03-03 05:32:00,
2013-03-03 00:42:00,30.0,-99.9,29.78,North,-999,-999.0,-999.0,-999,-99.99,,,-99.99,,2013-03-03 05:42:00,
2013-03-03 00:52:00,30.0,-99.9,29.79,North,-999,-999.0,-999.0,-999,-99.99,,,-99.99,,2013-03-03 05:52:00,
2013-03-03 01:22:00,30.0,-99.9,29.79,North,-999,-999.0,-999.0,-999,-99.99,,,-99.99,,2013-03-03 06:22:00,
2013-03-03 01:32:00,30.0,-99.9,29.79,North,-999,-999.0,-999.0,-999,-99.99,,,-99.99,,2013-03-03 06:32:00,
2013-03-03 01:42:00,30.0,-99.9,29.79,North,-999,-999.0,-999.0,-999,-99.99,,,-99.99,,2013-03-03 06:42:00,
2013-03-03 01:52:00,30.0,-99.9,29.79,North,-999,-999.0,-999.0,-999,-99.99,,,-99.99,,2013-03-03 06:52:00,
2013-03-03 02:22:00,30.0,-99.9,29.79,North,-999,-999.0,-999.0,-999,-99.99,,,-99.99,,2013-03-03 07:22:00,
2013-03-03 02:32:00,30.0,-99.9,29.79,North,-999,-999.0,-999.0,-999,-99.99,,,-99.99,,2013-03-03 07:32:00,
2013-03-03 02:42:00,30.0,-99.9,29.79,North,-999,-999.0,-999.0,-999,-99.99,,,-99.99,,2013-03-03 07:42:00,
2013-03-03 02:52:00,30.0,-99.9,29.78,NW,311,-999.0,-999.0,-999,-99.99,,,-99.99,,2013-03-03 07:52:00,
2013-03-03 03:21:00,30.0,-99.9,29.78,NW,311,-999.0,-999.0,-999,-99.99,,,-99.99,,2013-03-03 08:21:00,
2013-03-03 03:32:00,30.0,-99.9,29.78,NW,311,-999.0,-999.0,-999,-99.99,,,-99.99,,2013-03-03 08:32:00,
2013-03-03 03:42:00,30.0,-99.9,29.78,NW,311,-999.0,-999.0,-999,-99.99,,,-99.99,,2013-03-03 08:42:00,
2013-03-03 03:52:00,30.0,-99.9,29.79,NNW,341,-999.0,-999.0,-999,-99.99,,,-99.99,,2013-03-03 08:52:00,
2013-03-03 04:22:00,30.0,-99.9,29.79,NNW,341,-999.0,-999.0,-999,-99.99,,,-99.99,,2013-03-03 09:22:00,
2013-03-03 04:32:00,30.0,-99.9,29.79,NNW,341,-999.0,-999.0,-999,-99.99,,,-99.99,,2013-03-03 09:32:00,
2013-03-03 04:42:00,30.0,-99.9,29.79,NNW,341,-999.0,-999.0,-999,-99.99,,,-99.99,,2013-03-03 09:42:00,
2013-03-03 04:52:00,29.0,-99.9,29.80,North,-999,-999.0,-999.0,-999,-99.99,,,-99.99,,2013-03-03 09:52:00,
2013-03-03 05:22:00,29.0,-99.9,29.80,North,-999,-999.0,-999.0,-999,-99.99,,,-99.99,,2013-03-03 10:22:00,
2013-03-03 05:32:00,29.0,-99.9,29.80,North,-999,-999.0,-999.0,-999,-99.99,,,-99.99,,2013-03-03 10:32:00,
2013-03-03 05:42:00,29.0,-99.9,29.80,North,-999,-999.0,-999.0,-999,-99.99,,,-99.99,,2013-03-03 10:42:00,
2013-03-03 05:52:00,28.0,-99.9,29.80,North,-999,-999.0,11.0,-999,-99.99,,,-99.99,,2013-03-03 10:52:00,
2013-03-03 06:22:00,28.0,-99.9,29.80,North,-999,-999.0,11.0,-999,-99.99,,,-99.99,,2013-03-03 11:22:00,
2013-03-03 06:32:00,28.0,-99.9,29.80,North,-999,-999.0,11.0,-999,-99.99,,,-99.99,,2013-03-03 11:32:00,
2013-03-03 06:42:00,28.0,-99.9,29.80,North,-999,-999.0,11.0,-999,-99.99,,,-99.99,,2013-03-03 11:42:00,
2013-03-03 06:52:00,28.0,-99.9,29.81,North,-999,-999.0,-999.0,-999,-99.99,,,-99.99,,2013-03-03 11:52:00,
2013-03-03 07:22:00,28.0,-99.9,29.81,North,-999,-999.0,-999.0,-999,-99.99,,,-99.99,,2013-03-03 12:22:00,
2013-03-03 07:32:00,28.0,-99.9,29.81,North,-999,-999.0,-999.0,-999,-99.99,,,-99.99,,2013-03-03 12:32:00,
2013-03-03 07:43:00,28.0,-99.9,29.81,North,-999,-999.0,-999.0,-999,-99.99,,,-99.99,,2013-03-03 12:43:00,
2013-03-03 07:52:00,29.0,-99.9,29.80,North,-999,-999.0,-999.0,-999,-99.99,,,-99.99,,2013-03-03 12:52:00,
2013-03-03 08:32:00,29.0,-99.9,29.80,North,-999,-999.0,-999.0,-999,-99.99,,,-99.99,,2013-03-03 13:32:00,
2013-03-03 08:42:00,29.0,-99.9,29.80,North,-999,-999.0,-999.0,-999,-99.99,,,-99.99,,2013-03-03 13:42:00,
2013-03-03 08:52:00,30.0,-99.9,29.79,North,-999,-999.0,2.0,-999,-99.99,,,-99.99,,2013-03-03 13:52:00,
2013-03-03 09:22:00,30.0,-99.9,29.79,North,-999,-999.0,2.0,-999,-99.99,,,-99.99,,2013-03-03 14:22:00,
2013-03-03 09:32:00,30.0,-99.9,29.79,North,-999,-999.0,2.0,-999,-99.99,,,-99.99,,2013-03-03 14:32:00,
2013-03-03 09:42:00,30.0,-99.9,29.79,North,-999,-999.0,2.0,-999,-99.99,,,-99.99,,2013-03-03 14:42:00,
2013-03-03 09:52:00,31.0,-99.9,29.78,North,-999,-999.0,-999.0,-999,-99.99,,,-99.99,,2013-03-03 14:52:00,
2013-03-03 10:33:00,31.0,-99.9,29.78,North,-999,-999.0,-999.0,-999,-99.99,,,-99.99,,2013-03-03 15:33:00,
2013-03-03 10:42:00,31.0,-99.9,29.78,North,-999,-999.0,-999.0,-999,-99.99,,,-99.99,,2013-03-03 15:42:00,
2013-03-03 10:52:00,34.0,-99.9,29.77,North,-999,-999.0,-999.0,-999,-99.99,,,-99.99,,2013-03-03 15:52:00,
2013-03-03 11:22:00,34.0,-99.9,29.77,North,-999,-999.0,-999.0,-999,-99.99,,,-99.99,,2013-03-03 16:22:00,
2013-03-03 11:32:00,34.0,-99.9,29.77,North,-999,-999.0,-999.0,-999,-99.99,,,-99.99,,2013-03-03 16:32:00,
2013-03-03 11:42:00,34.0,-99.9,29.77,North,-999,-999.0,-999.0,-999,-99.99,,,-99.99,,2013-03-03 16:42:00,
2013-03-03 11:52:00,35.0,-99.9,29.76,NNW,329,-999.0,-999.0,-999,-99.99,,,-99.99,,2013-03-03 16:52:00,
2013-03-03 12:22:00,35.0,-99.9,29.76,NNW,329,-999.0,-999.0,-999,-99.99,,,-99.99,,2013-03-03 17:22:00,
2013-03-03 12:32:00,35.0,-99.9,29.76,NNW,329,-999.0,-999.0,-999,-99.99,,,-99.99,,2013-03-03 17:32:00,
2013-03-03 12:42:00,35.0,-99.9,29.76,NNW,329,-999.0,-999.0,-999,-99.99,,,-99.99,,2013-03-03 17:42:00,
2013-03-03 12:52:00,36.0,-99.9,29.74,West,266,-999.0,-999.0,-999,-99.99,,,-99.99,,2013-03-03 17:52:00,
2013-03-03 13:22:00,36.0,-99.9,29.74,West,266,-999.0,-999.0,-999,-99.99,,,-99.99,,2013-03-03 18:22:00,
2013-03-03 13:32:00,36.0,-99.9,29.74,West,266,-999.0,-999.0,-999,-99.99,,,-99.99,,2013-03-03 18:32:00,
2013-03-03 13:42:00,36.0,-99.9,29.74,West,266,-999.0,-999.0,-999,-99.99,,,-99.99,,2013-03-03 18:42:00,
2013-03-03 13:52:00,36.0,-99.9,29.72,NE,52,-999.0,-999.0,-999,-99.99,,,-99.99,,2013-03-03 18:52:00,
2013-03-03 14:32:00,36.0,-99.9,29.72,NE,52,-999.0,-999.0,-999,-99.99,,,-99.99,,2013-03-03 19:32:00,
2013-03-03 14:42:00,36.0,-99.9,29.72,NE,52,-999.0,-999.0,-999,-99.99,,,-99.99,,2013-03-03 19:42:00,
2013-03-03 14:52:00,36.0,-99.9,29.72,North,-999,-999.0,-999.0,-999,-99.99,,,-99.99,,2013-03-03 19:52:00,
2013-03-03 15:22:00,36.0,-99.9,29.72,North,-999,-999.0,-999.0,-999,-99.99,,,-99.99,,2013-03-03 20:22:00,
2013-03-03 15:32:00,36.0,-99.9,29.72,North,-999,-999.0,-999.0,-999,-99.99,,,-99.99,,2013-03-03 20:32:00,
2013-03-03 15:43:00,36.0,-99.9,29.72,North,-999,-999.0,-999.0,-999,-99.99,,,-99.99,,2013-03-03 20:43:00,
2013-03-03 15:52:00,37.0,-99.9,29.72,North,-999,-999.0,-999.0,-999,-99.99,,,-99.99,,2013-03-03 20:52:00,
2013-03-03 16:22:00,37.0,-99.9,29.72,North,-999,-999.0,-999.0,-999,-99.99,,,-99.99,,2013-03-03 21:22:00,
2013-03-03 16:32:00,37.0,-99.9,29.72,North,-999,-999.0,-999.0,-999,-99.99,,,-99.99,,2013-03-03 21:32:00,
2013-03-03 16:42:00,37.0,-99.9,29.72,North,-999,-999.0,-999.0,-999,-99.99,,,-99.99,,2013-03-03 21:42:00,
2013-03-03 16:52:00,36.0,-99.9,29.73,North,-999,-999.0,-999.0,-999,-99.99,,,-99.99,,2013-03-03 21:52:00,
2013-03-03 17:22:00,36.0,-99.9,29.73,North,-999,-999.0,-999.0,-999,-99.99,,,-99.99,,2013-03-03 22:22:00,
2013-03-03 17:32:00,36.0,-99.9,29.73,North,-999,-999.0,-999.0,-999,-99.99,,,-99.99,,2013-03-03 22:32:00,
2013-03-03 17:42:00,36.0,-99.9,29.73,North,-999,-999.0,-999.0,-999,-99.99,,,-99.99,,2013-03-03 22:42:00,
2013-03-03 17:52:00,34.0,-99.9,29.75,North,-999,-999.0,-999.0,-999,-99.99,,,-99.99,,2013-03-03 22:52:00,
2013-03-03 18:22:00,34.0,-99.9,29.75,North,-999,-999.0,-999.0,-999,-99.99,,,-99.99,,2013-03-03 23:22:00,
2013-03-03 18:32:00,34.0,-99.9,29.75,North,-999,-999.0,-999.0,-999,-99.99,,,-99.99,,2013-03-03 23:32:00,
2013-03-03 18:42:00,34.0,-99.9,29.75,North,-999,-999.0,-999.0,-999,-99.99,,,-99.99,,2013-03-03 23:42:00,
2013-03-03 18:52:00,33.0,-99.9,29.76,North,-999,-999.0,-999.0,-999,-99.99,,,-99.99,,2013-03-03 23:52:00,
2013-03-03 19:32:00,33.0,-99.9,29.76,North,-999,-999.0,-999.0,-999,-99.99,,,-99.99,,2013-03-04 00:32:00,
2013-03-03 19:42:00,33.0,-99.9,29.76,North,-999,-999.0,-999.0,-999,-99.99,,,-99.99,,2013-03-04 00:42:00,
2013-03-03 19:52:00,32.0,-99.9,29.78,North,-999,-999.0,-999.0,-999,-99.99,,,-99.99,,2013-03-04 00:52:00,
2013-03-03 20:22:00,32.0,-99.9,29.78,North,-999,-999.0,-999.0,-999,-99.99,,,-99.99,,2013-03-04 01:22:00,
2013-03-03 20:32:00,32.0,-99.9,29.78,North,-999,-999.0,-999.0,-999,-99.99,,,-99.99,,2013-03-04 01:32:00,
2013-03-03 20:42:00,32.0,-99.9,29.78,North,-999,-999.0,-999.0,-999,-99.99,,,-99.99,,2013-03-04 01:42:00,
2013-03-03 20:52:00,31.0,-99.9,29.80,North,-999,-999.0,4.0,-999,-99.99,,,-99.99,,2013-03-04 01:52:00,
2013-03-03 21:22:00,31.0,-99.9,29.80,North,-999,-999.0,4.0,-999,-99.99,,,-99.99,,2013-03-04 02:22:00,
2013-03-03 21:32:00,31.0,-99.9,29.80,North,-999,-999.0,4.0,-999,-99.99,,,-99.99,,2013-03-04 02:32:00,
2013-03-03 21:42:00,31.0,-99.9,29.80,North,-999,-999.0,4.0,-999,-99.99,,,-99.99,,2013-03-04 02:42:00,
2013-03-03 21:52:00,30.0,-99.9,29.80,West,281,-999.0,9.0,-999,-99.99,,,-99.99,,2013-03-04 02:52:00,
2013-03-03 22:22:00,30.0,-99.9,29.80,West,281,-999.0,9.0,-999,-99.99,,,-99.99,,2013-03-04 03:22:00,
2013-03-03 22:32:00,30.0,-99.9,29.80,West,281,-999.0,9.0,-999,-99.99,,,-99.99,,2013-03-04 03:32:00,
2013-03-03 22:42:00,30.0,-99.9,29.80,West,281,-999.0,9.0,-999,-99.99,,,-99.99,,2013-03-04 03:42:00,
2013-03-03 22:52:00,30.0,-99.9,29.81,West,281,-999.0,-999.0,-999,-99.99,,,-99.99,,2013-03-04 03:52:00,
2013-03-03 23:22:00,30.0,-99.9,29.81,West,281,-999.0,-999.0,-999,-99.99,,,-99.99,,2013-03-04 04:22:00,
2013-03-03 23:32:00,30.0,-99.9,29.81,West,281,-999.0,-999.0,-999,-99.99,,,-99.99,,2013-03-04 04:32:00,
2013-03-03 23:42:00,30.0,-99.9,29.81,West,281,-999.0,-999.0,-999,-99.99,,,-99.99,,2013-03-04 04:42:00,
2013-03-03 23:52:00,29.0,-99.9,29.82,NW,312,-999.0,-999.0,-999,-99.99,,,-99.99,,2013-03-04 04:52:00,